TimeWET,TemperatureF,Dew PointF,Humidity,Sea Level PressureIn,VisibilityMPH,Wind Direction,Wind SpeedMPH,Gust SpeedMPH,PrecipitationIn,Events,Conditions,WindDirDegrees,DateUTC
12:00 AM,62,60,89,29.96,6,South,2.3,,,,,180,2012-11-16 00:00:00
12:00 AM,60.8,59.0,94,29.92,-9999.0,South,2.3,-,N/A,,Clear,180,2012-11-16 00:00:00
1:00 AM,60.8,59.0,94,29.89,-9999.0,South,2.3,-,N/A,,Clear,180,2012-11-16 01:00:00
2:00 AM,60.8,59.0,94,29.89,-9999.0,SSW,4.6,-,N/A,,Clear,200,2012-11-16 02:00:00
3:00 AM,60,58,90,29.92,6,South,4.6,,,,,180,2012-11-16 03:00:00
3:00 AM,59.0,57.2,94,29.89,-9999.0,South,4.6,-,N/A,,Clear,180,2012-11-16 03:00:00
4:00 AM,60.8,59.0,94,29.89,-9999.0,SSW,4.6,-,N/A,,Clear,200,2012-11-16 04:00:00
5:00 AM,59.0,57.2,94,29.89,-9999.0,South,4.6,-,N/A,,Clear,180,2012-11-16 05:00:00
6:00 AM,59,57,89,29.91,6,SSW,4.6,,,,,200,2012-11-16 06:00:00
6:00 AM,59.0,57.2,94,29.89,-9999.0,SSW,4.6,-,N/A,,Clear,200,2012-11-16 06:00:00
7:00 AM,59.0,57.2,94,29.89,3.1,SSW,6.9,-,N/A,,Unknown,200,2012-11-16 07:00:00
8:00 AM,59.0,57.2,94,29.89,3.1,South,4.6,-,N/A,,Unknown,180,2012-11-16 08:00:00
9:00 AM,63,57,76,29.93,3,SSW,4.6,,,,,200,2012-11-16 09:00:00
9:00 AM,62.6,57.2,82,29.89,3.1,SSW,4.6,-,N/A,,Unknown,200,2012-11-16 09:00:00
10:00 AM,66.2,59.0,78,29.89,3.1,SSW,4.6,-,N/A,,Unknown,200,2012-11-16 10:00:00
11:00 AM,69.8,57.2,64,29.89,3.1,SSW,6.9,-,N/A,,Unknown,200,2012-11-16 11:00:00
12:00 PM,73,57,48,29.91,5,SSW,9.2,,,,Clear,200,2012-11-16 12:00:00
12:00 PM,73.4,57.2,57,29.86,5.0,SSW,9.2,-,N/A,,Unknown,200,2012-11-16 12:00:00
1:00 PM,73.4,57.2,57,29.86,5.0,SW,4.6,-,N/A,,Unknown,220,2012-11-16 13:00:00
2:00 PM,73.4,55.4,53,29.83,6.2,West,6.9,-,N/A,,Mostly Cloudy,260,2012-11-16 14:00:00
3:00 PM,73,54,40,29.86,12,WSW,6.9,,,,Partly Cloudy,240,2012-11-16 15:00:00
3:00 PM,73.4,53.6,50,29.83,6.2,WSW,6.9,-,N/A,,Mostly Cloudy,240,2012-11-16 15:00:00
4:00 PM,71.6,59.0,64,29.83,6.2,WNW,2.3,-,N/A,,Mostly Cloudy,300,2012-11-16 16:00:00
5:00 PM,71.6,57.2,60,29.83,6.2,WSW,3.5,-,N/A,,Mostly Cloudy,240,2012-11-16 17:00:00
6:00 PM,70,58,57,29.87,6,SW,2.3,,,,Scattered Clouds,220,2012-11-16 18:00:00
6:00 PM,69.8,59.0,68,29.83,6.2,SW,2.3,-,N/A,,Mostly Cloudy,220,2012-11-16 18:00:00
7:00 PM,69.8,59.0,68,29.83,6.2,WSW,4.6,-,N/A,,Scattered Clouds,240,2012-11-16 19:00:00
8:00 PM,68.0,59.0,73,29.83,6.2,SW,5.8,-,N/A,,Scattered Clouds,220,2012-11-16 20:00:00
9:00 PM,67,59,68,29.88,6,SW,5.8,,,,Partly Cloudy,220,2012-11-16 21:00:00
9:00 PM,68.0,59.0,73,29.83,6.2,SW,5.8,-,N/A,,Scattered Clouds,220,2012-11-16 21:00:00
10:00 PM,66.2,59.0,78,29.83,6.2,SW,6.9,-,N/A,,Partly Cloudy,220,2012-11-16 22:00:00
11:00 PM,64.4,60.8,88,29.83,6.2,SSW,6.9,-,N/A,,Partly Cloudy,200,2012-11-16 23:00:00